Hourly Data Report for October 14, 2013

All times are specified in Local Standard Time (LST). Add 1 hour to adjust for Daylight Saving Time where and when it is observed.

TORONTO INTL A
ONTARIO

43°40'36.000" N
79°37'50.000" W
173.40 m
6158731
71624
YYZ

Download Data

Hourly Data (October 2013)
Hourly Data Report for October 14, 2013
Temp Definition
°C
Dew Point Temp Definition
°C
Rel Hum Definition
%
Wind Dir Definition
10's deg

Wind Spd Definition
km/h
Visibility Definition
km
Stn Press Definition
kPa
Hmdx Definition


Wind Chill Definition


Weather Definition


TIME
00:00 Legend Double Dagger 10.3 7.9 85 32 15 24.1 100.52     LegendNANA
01:00 Legend Double Dagger 10.5 7.6 82 33 20 24.1 100.53     Mainly Clear
02:00 Legend Double Dagger 9.9 7.3 84 33 14 24.1 100.55     LegendNANA
03:00 Legend Double Dagger 9.1 7.2 88 32 15 24.1 100.54     LegendNANA
04:00 Legend Double Dagger 7.8 6.3 90 29 9 24.1 100.60     Clear
05:00 Legend Double Dagger 8.4 6.7 89 31 8 24.1 100.62     LegendNANA
06:00 Legend Double Dagger 7.8 6.1 89 28 11 24.1 100.66     LegendNANA
07:00 Legend Double Dagger 7.8 6.1 89 28 14 24.1 100.67     Clear
08:00 Legend Double Dagger 10.2 7.5 83 31 15 24.1 100.71     LegendNANA
09:00 Legend Double Dagger 12.5 8.8 78 34 13 24.1 100.70     LegendNANA
10:00 Legend Double Dagger 14.2 9.5 73 35 17 24.1 100.68     Mainly Clear
11:00 Legend Double Dagger 15.4 10.0 70 1 13 24.1 100.65     LegendNANA
12:00 Legend Double Dagger 16.3 9.8 65 35 13 24.1 100.60     LegendNANA
13:00 Legend Double Dagger 16.8 9.6 62 36 14 24.1 100.56     Mostly Cloudy
14:00 Legend Double Dagger 16.9 8.7 58 1 18 24.1 100.48     LegendNANA
15:00 Legend Double Dagger 17.0 7.7 54 3 10 24.1 100.47     LegendNANA
16:00 Legend Double Dagger 17.2 7.1 51 36 16 24.1 100.46     Mainly Clear
17:00 Legend Double Dagger 15.7 7.0 56 2 19 24.1 100.48     LegendNANA
18:00 Legend Double Dagger 14.6 7.9 64 36 13 24.1 100.54     LegendNANA
19:00 Legend Double Dagger 12.8 8.3 74 1 16 24.1 100.55     Clear
20:00 Legend Double Dagger 11.7 7.6 76 2 10 24.1 100.57     LegendNANA
21:00 Legend Double Dagger 10.6 7.3 80 1 9 24.1 100.55     LegendNANA
22:00 Legend Double Dagger 10.2 7.1 81 35 13 24.1 100.57     Mainly Clear
23:00 Legend Double Dagger 10.1 7.2 82 36 15 24.1 100.54     LegendNANA

Notes on Data Quality.

Legend

  • E = Estimated
  • M = Missing
  • NA = Not Available
  • ‡ = Partner data that is not subject to review by the National Climate Archives
Date modified: